2021-002K (47318 NORAD) Tracking and Keplerian Element Data

This shows tracking and keplerian element data for the satellite.

Feedback or suggestion? Click here.




ElementValue
Catalog47318
Name2021-002K
Epoch Orbit1271
Epoch Day101.76961076
Epoch Year2021
RAAN181.1599
Inclination60.681
Eccentricity0.0030606
Argument of Perigee5.8942
Mean Anonmoly354.2498
Mean Motion15.20604753
Decay Rate9.67E-06
L11 47318U 21002K 21101.76961076 .00000967 00000-0 55648-4 0 9999
L22 47318 60.6810 181.1599 0030606 5.8942 354.2498 15.20604753 12712

Live tracking and technical data element details for 2021-002K (NORAD 47318). 2021-002K can be tracked NOW for your location showing map with azimuth and elevation plus other details from your city location.

Track the satellite on the map from your city or location and see movement details for azimuth, elevation, latitude, longitude, range, height, and movement on the map or in text.







IsCatalogInMostPopularTable: catalog: 47318, numindb: 19
Update: records affected: 1



GetName: 47318 2021-002K

Hit Count: updated at: Tue, 13 Apr 2021 04:34:56 GMT